Regional Weather Roundup
Issued by NWS

Home | Current Version | Previous Version | Text Only | Print | Product List | Glossary Off
Versions: 1 2 3 4 5 6 7 8 9 10 11 12 13 14 15 16 17 18 19 20 21 22 23 24 25 26 27 28 29 30 31 32 33 34 35 36 37 38 39 40 41 42 43 44 45 46 47 48 49 50

000
ASUS43 KOAX 160902
RWRNE

WEATHER ROUNDUP FOR NEBRASKA
NATIONAL WEATHER SERVICE OMAHA NE
400 AM CDT TUE SEP 16 2014

NOTES: SATELLITE DATA IS BEING USED TO AUGMENT CLOUD COVER ABOVE
       12000 FEET.
       "FAIR" INDICATES FEW OR NO CLOUDS BELOW 12,000 FEET WITH NO
       SIGNIFICANT WEATHER AND/OR OBSTRUCTIONS TO VISIBILITY.

  * THESE STATIONS DO NOT REPORT WEATHER SUCH AS RAIN...SNOW OR FOG.

NEZ001>004-019>022-054>056-161000-
NEBRASKA PANHANDLE

CITY           SKY/WX    TMP DP  RH WIND       PRES   REMARKS
SCOTTSBLUFF    PTCLDY    52  50  93 E9        30.10F
ALLIANCE       PTCLDY    49  46  90 S10       30.11F
CHADRON        CLEAR     51  47  86 SE5       30.07F
KIMBALL        PTCLDY    47  47  98 SW8       30.14F
SIDNEY         PTCLDY    51  49  92 S9        30.16F
$$

NEZ057>060-069>072-079>082-161000-
SOUTHWEST NEBRASKA

CITY           SKY/WX    TMP DP  RH WIND       PRES   REMARKS
NORTH PLATTE   CLEAR     46  42  86 SE3       30.21F
IMPERIAL       MOCLDY    51  45  79 SE9       30.19F
LEXINGTON      CLEAR     47  44  89 SE7       30.23F
MCCOOK         CLEAR     49  43  80 S6        30.23F
OGALLALA       PTCLDY    52  46  80 S5        30.17F
$$

NEZ005>010-023>029-035>040-094-161000-
NORTH CENTRAL NEBRASKA

CITY           SKY/WX    TMP DP  RH WIND       PRES   REMARKS
VALENTINE      CLEAR     52  43  71 S8        30.14F
AINSWORTH      CLEAR     46  41  82 S9        30.17F
BROKEN BOW     CLEAR     42  40  92 SE3       30.21F
O`NEILL        CLEAR     44  42  91 S8        30.21F
ORD            CLEAR     42  39  89 CALM      30.22F
THEDFORD       CLEAR     50  43  76 S7        30.19F
$$

NEZ041-046>049-061>064-073>077-083>087-161000-
SOUTH CENTRAL NEBRASKA

CITY           SKY/WX    TMP DP  RH WIND       PRES   REMARKS
GRAND ISLAND   CLEAR     47  43  86 SE8       30.25F
AURORA         CLEAR     46  42  87 S5        30.25F
HASTINGS       CLEAR     48  42  80 S8        30.25F
HEBRON         CLEAR     41  39  93 CALM      30.27S
HOLDREGE       CLEAR     45  42  88 SE5       30.24F
KEARNEY *      CLEAR     45  39  81 SE7       30.24F
YORK           CLEAR     45  43  93 S5        30.26F
$$

NEZ011>018-030>034-042>045-161000-
NORTHEAST NEBRASKA

CITY           SKY/WX    TMP DP  RH WIND       PRES   REMARKS
NORFOLK        CLEAR     43  40  89 S5        30.24F
ALBION         CLEAR     41  38  89 SE3       30.25F
BLAIR          CLEAR     47  44  87 CALM      30.25F
COLUMBUS *     CLEAR     37  36  93 CALM      30.26F
FREMONT        CLEAR     45  44  96 CALM      30.26F FOG
TEKAMAH        PTCLDY    40  38  93 CALM      30.26F
WAYNE          CLEAR     37  36  96 CALM      30.25F
$$

NEZ050>053-065>068-078-088>093-161000-
SOUTHEAST NEBRASKA

CITY           SKY/WX    TMP DP  RH WIND       PRES   REMARKS
LINCOLN        CLEAR     42  40  92 CALM      30.27F
OMAHA EPPLEY   PTCLDY    47  45  93 SE3       30.27F FOG
BEATRICE       CLEAR     40  39  96 CALM      30.27S
FALLS CITY     CLEAR     44  43  96 W3        30.26S
NEBRASKA CITY  CLEAR     47  43  86 CALM      30.27S
PLATTSMOUTH    CLEAR     46  43  88 CALM      30.26F
$$

NEZ044-045-051>053-067-161000-
OMAHA AREA

CITY           SKY/WX    TMP DP  RH WIND       PRES   REMARKS
OMAHA EPPLEY   PTCLDY    47  45  93 SE3       30.27F FOG
BLAIR          CLEAR     47  44  87 CALM      30.25F
FREMONT        CLEAR     45  44  96 CALM      30.26F FOG
MILLARD        CLEAR     45  44  97 CALM      30.26F FOG
OFFUTT AFB     CLEAR     40  40 100 CALM      30.26F
PLATTSMOUTH    CLEAR     46  43  88 CALM      30.26F
WAHOO          FAIR      40  38  92 CALM      30.26F
$$



USA.gov is the U.S. government's official web portal to all federal, state and local government web resources and services.